Weather History for KRXE - June, 2013

Change the Weather History Date:

Sunday, June 23, 2013

  Actual Average Record
Temperature  
Mean Temperature 59 °F 62 °F  
Max Temperature 78 °F 76 °F 87 °F (2001)
Min Temperature 39 °F 47 °F 33 °F (2003)
Degree Days  
Heating Degree Days 6 4  
Month to date heating degree days 113 147  
Since 1 June heating degree days 113 147  
Since 1 July heating degree days 7797 8105  
Cooling Degree Days 0 1  
Month to date cooling degree days 20 11  
Year to date cooling degree days 22 15  
Since 1 June cooling degree days 20 11  
Growing Degree Days 8 (Base 50)    
Moisture  
Dew Point 34 °F    
Average Humidity 51    
Maximum Humidity 85    
Minimum Humidity 16    
Precipitation  
Precipitation 0.00 in 0.04 in 0.38 in (1982)
Month to date precipitation 0.22 1.23  
Year to date precipitation 4.47 7.10  
Sea Level Pressure  
Sea Level Pressure 29.83 in    
Wind  
Wind Speed 5 mph (SSE)    
Max Wind Speed 14 mph    
Max Gust Speed 20 mph    
Visibility 10 miles    
Events      
T = Trace of Precipitation, MM = Missing Value Source: NWS Daily Summary

Daily Weather History Graph

Daily Weather History Graph

Search for Another Location

Airport or City:

Trip Planner

Search our weather history database for the weather conditions in past years. The results will help you decide how hot, cold, wet, or windy it might be!

Date:

Astronomy

Jun. 23, 2013 Rise Set
Actual Time 5:45 AM MDT 9:13 PM MDT
Civil Twilight 5:09 AM MDT 9:49 PM MDT
Nautical Twilight 4:21 AM MDT 10:37 PM MDT
Astronomical Twilight 3:21 AM MDT 11:37 PM MDT
Moon 9:25 PM MDT (6/23) 6:09 AM MDT (6/23)
Length of Visible Light 16h 40m
Length of Day
15h 27m
Full, 100% of the Moon is Illuminated
Jun 23
Full
Jun 29
Last Quarter
Jul 8
New
Jul 15
First Quarter
Jul 22
Full

Hourly Weather History & Observations

Time (MDT) Temp. Windchill Dew Point Humidity Pressure Visibility Wind Dir Wind Speed Gust Speed Precip Events Conditions
12:53 AM 50.0 °F - 36.0 °F 59% 29.96 in 10.0 mi Calm Calm - N/A   Clear
1:53 AM 46.0 °F 43.9 °F 37.9 °F 73% 29.96 in 10.0 mi North 4.6 mph - N/A   Clear
2:53 AM 43.0 °F - 37.9 °F 82% 29.96 in 10.0 mi Calm Calm - N/A   Clear
3:53 AM 41.0 °F 38.0 °F 36.0 °F 82% 29.96 in 10.0 mi North 4.6 mph - N/A   Clear
4:53 AM 39.9 °F - 36.0 °F 86% 29.95 in 10.0 mi Calm Calm - N/A   Clear
5:53 AM 39.0 °F 36.8 °F 35.1 °F 86% 29.95 in 10.0 mi NE 3.5 mph - N/A   Clear
6:53 AM 41.0 °F - 35.1 °F 79% 29.94 in 10.0 mi Calm Calm - N/A   Clear
7:53 AM 46.9 °F - 37.0 °F 68% 29.94 in 10.0 mi NNE 3.5 mph - N/A   Clear
8:53 AM 52.0 °F - 37.9 °F 59% 29.93 in 10.0 mi Calm Calm - N/A   Clear
9:53 AM 62.1 °F - 34.0 °F 35% 29.90 in 10.0 mi SSW 6.9 mph - N/A   Clear
10:53 AM 63.0 °F - 32.0 °F 31% 29.88 in 10.0 mi Calm Calm - N/A   Clear
11:53 AM 66.0 °F - 33.1 °F 29% 29.86 in 10.0 mi WSW 4.6 mph - N/A   Clear
12:53 PM 70.0 °F - 30.9 °F 24% 29.84 in 10.0 mi SW 4.6 mph - N/A   Clear
1:53 PM 73.0 °F - 30.0 °F 20% 29.81 in 10.0 mi WSW 9.2 mph - N/A   Clear
2:53 PM 73.9 °F - 30.0 °F 20% 29.79 in 10.0 mi WSW 12.7 mph 16.1 mph N/A   Clear
3:53 PM 73.9 °F - 28.9 °F 19% 29.78 in 10.0 mi SSW 6.9 mph - N/A   Clear
4:53 PM 75.9 °F - 26.1 °F 16% 29.75 in 10.0 mi SSW 10.4 mph 19.6 mph N/A   Clear
5:53 PM 75.9 °F - 26.1 °F 16% 29.73 in 10.0 mi South 5.8 mph - N/A   Clear
6:53 PM 75.9 °F - 27.0 °F 16% 29.71 in 10.0 mi SW 4.6 mph - N/A   Clear
7:53 PM 77.0 °F - 28.9 °F 17% 29.69 in 10.0 mi ESE 3.5 mph - N/A   Clear
8:53 PM 71.1 °F - 37.9 °F 30% 29.68 in 10.0 mi East 4.6 mph - N/A   Clear
9:53 PM 66.0 °F - 37.0 °F 34% 29.66 in 10.0 mi East 6.9 mph - N/A   Clear
10:53 PM 63.0 °F - 37.0 °F 38% 29.66 in 10.0 mi ENE 6.9 mph - N/A   Clear
11:53 PM 59.0 °F - 39.0 °F 48% 29.65 in 10.0 mi NE 5.8 mph - N/A   Clear